When you browse on this site, cookies collect data to enhance your experience and personalize the content and advertising you see.
Visit our Privacy Policy to learn more. By continuing to use the site, you agree to this use of cookies and data.

Stündliche Wetter Rustawi

Heute, 3 Juli, Freitag

Zeit Temperatur Niederschläge Wind Luftdruck Luftfeuchtigkeit
00:00 +23°C° 0 mm 2 m/S 727 mmHg 52%
01:00 +22°C° 0 mm 1 m/S 726 mmHg 54%
02:00 +21°C° 0 mm 1 m/S 726 mmHg 56%
03:00 +21°C° 0 mm 1 m/S 726 mmHg 58%
04:00 +21°C° 0 mm 1 m/S 726 mmHg 57%
05:00 +22°C° 0 mm 1 m/S 726 mmHg 56%
06:00 +23°C° 0 mm 1 m/S 726 mmHg 54%
07:00 +25°C° 0 mm 1 m/S 726 mmHg 49%
08:00 +26°C° 0 mm 1 m/S 726 mmHg 45%
09:00 +28°C° 0 mm 2 m/S 726 mmHg 40%
10:00 +30°C° 0 mm 2 m/S 726 mmHg 36%
11:00 +31°C° 0 mm 3 m/S 726 mmHg 33%
12:00 +33°C° 0 mm 4 m/S 726 mmHg 30%
13:00 +34°C° 0 mm 4 m/S 726 mmHg 29%
14:00 +34°C° 0 mm 4 m/S 725 mmHg 29%
15:00 +35°C° 0 mm 4 m/S 725 mmHg 28%
16:00 +34°C° 0 mm 4 m/S 725 mmHg 30%
17:00 +34°C° 0 mm 4 m/S 725 mmHg 32%
18:00 +33°C° 0 mm 3 m/S 725 mmHg 33%
19:00 +30°C° 0 mm 3 m/S 726 mmHg 38%
20:00 +28°C° 0 mm 2 m/S 726 mmHg 43%
21:00 +26°C° 0 mm 1 m/S 726 mmHg 48%
22:00 +25°C° 0 mm 1 m/S 726 mmHg 49%
23:00 +25°C° 0 mm 1 m/S 726 mmHg 50%

Morgen, 4 Juli, Samstag

Zeit Temperatur Niederschläge Wind Luftdruck Luftfeuchtigkeit
00:00 +24°C° 0 mm 1 m/S 726 mmHg 51%
01:00 +24°C° 0 mm 1 m/S 726 mmHg 52%
02:00 +24°C° 0 mm 1 m/S 726 mmHg 54%
03:00 +23°C° 0 mm 1 m/S 726 mmHg 55%
04:00 +24°C° 0 mm 1 m/S 726 mmHg 54%
05:00 +24°C° 0 mm 1 m/S 726 mmHg 53%
06:00 +25°C° 0 mm 1 m/S 726 mmHg 52%
07:00 +27°C° 0 mm 1 m/S 726 mmHg 45%
08:00 +28°C° 0 mm 2 m/S 726 mmHg 39%
09:00 +30°C° 0 mm 3 m/S 726 mmHg 32%
10:00 +33°C° 0 mm 3 m/S 725 mmHg 29%
11:00 +34°C° 0 mm 4 m/S 725 mmHg 26%
12:00 +35°C° 0 mm 4 m/S 725 mmHg 23%
13:00 +36°C° 0 mm 4 m/S 724 mmHg 23%
14:00 +36°C° 0 mm 4 m/S 724 mmHg 22%
15:00 +37°C° 0 mm 4 m/S 724 mmHg 22%
16:00 +36°C° 0 mm 4 m/S 724 mmHg 24%
17:00 +36°C° 0 mm 3 m/S 724 mmHg 26%
18:00 +35°C° 0 mm 3 m/S 724 mmHg 28%
19:00 +32°C° 0 mm 2 m/S 724 mmHg 32%
20:00 +29°C° 0 mm 2 m/S 724 mmHg 36%
21:00 +27°C° 0 mm 1 m/S 725 mmHg 40%
22:00 +27°C° 0 mm 2 m/S 725 mmHg 40%
23:00 +26°C° 0 mm 2 m/S 725 mmHg 40%

übermorgen, 5 Juli, Sonntag

Zeit Temperatur Niederschläge Wind Luftdruck Luftfeuchtigkeit
00:00 +26°C° 0 mm 2 m/S 725 mmHg 40%
01:00 +25°C° 0 mm 2 m/S 725 mmHg 41%
02:00 +24°C° 0 mm 2 m/S 724 mmHg 43%
03:00 +23°C° 0 mm 1 m/S 724 mmHg 44%
04:00 +23°C° 0 mm 1 m/S 724 mmHg 43%
05:00 +24°C° 0 mm 1 m/S 724 mmHg 42%
06:00 +25°C° 0 mm 1 m/S 725 mmHg 42%
07:00 +27°C° 0 mm 2 m/S 724 mmHg 35%
08:00 +29°C° 0 mm 2 m/S 724 mmHg 29%
09:00 +31°C° 0 mm 3 m/S 724 mmHg 22%
10:00 +33°C° 0 mm 3 m/S 724 mmHg 20%
11:00 +34°C° 0 mm 4 m/S 723 mmHg 18%
12:00 +36°C° 0 mm 5 m/S 723 mmHg 15%
13:00 +36°C° 0 mm 5 m/S 723 mmHg 16%
14:00 +37°C° 0 mm 5 m/S 723 mmHg 17%
15:00 +37°C° 0 mm 5 m/S 722 mmHg 18%
16:00 +37°C° 0 mm 4 m/S 722 mmHg 20%
17:00 +36°C° 0 mm 4 m/S 722 mmHg 21%
18:00 +35°C° 0 mm 3 m/S 722 mmHg 23%
19:00 +33°C° 0 mm 3 m/S 723 mmHg 27%
20:00 +29°C° 0 mm 2 m/S 723 mmHg 30%
21:00 +27°C° 0 mm 1 m/S 723 mmHg 34%
22:00 +26°C° 0 mm 2 m/S 723 mmHg 34%
23:00 +25°C° 0 mm 2 m/S 723 mmHg 34%

6 Juli, Montag

Zeit Temperatur Niederschläge Wind Luftdruck Luftfeuchtigkeit
00:00 +25°C° 0 mm 2 m/S 723 mmHg 34%
01:00 +24°C° 0 mm 2 m/S 723 mmHg 35%
02:00 +23°C° 0 mm 2 m/S 723 mmHg 35%
03:00 +23°C° 0 mm 1 m/S 723 mmHg 36%
04:00 +23°C° 0 mm 1 m/S 723 mmHg 36%
05:00 +24°C° 0 mm 1 m/S 723 mmHg 36%
06:00 +25°C° 0 mm 1 m/S 723 mmHg 36%
07:00 +27°C° 0 mm 1 m/S 723 mmHg 31%
08:00 +29°C° 0 mm 2 m/S 723 mmHg 26%
09:00 +32°C° 0 mm 2 m/S 723 mmHg 21%
10:00 +34°C° 0 mm 3 m/S 723 mmHg 20%
11:00 +35°C° 0 mm 4 m/S 723 mmHg 18%
12:00 +37°C° 0 mm 5 m/S 723 mmHg 17%
13:00 +37°C° 0 mm 5 m/S 723 mmHg 16%
14:00 +39°C° 0 mm 5 m/S 722 mmHg 16%
15:00 +39°C° 0 mm 6 m/S 722 mmHg 16%
16:00 +39°C° 0 mm 5 m/S 722 mmHg 18%
17:00 +37°C° 0 mm 4 m/S 722 mmHg 20%
18:00 +36°C° 0 mm 3 m/S 722 mmHg 22%
19:00 +34°C° 0 mm 2 m/S 722 mmHg 25%
20:00 +30°C° 0 mm 2 m/S 722 mmHg 29%
21:00 +28°C° 0 mm 2 m/S 723 mmHg 32%
22:00 +27°C° 0 mm 2 m/S 723 mmHg 33%
23:00 +27°C° 0 mm 2 m/S 723 mmHg 34%

7 Juli, Dienstag

Zeit Temperatur Niederschläge Wind Luftdruck Luftfeuchtigkeit
00:00 +26°C° 0 mm 2 m/S 723 mmHg 34%
01:00 +26°C° 0 mm 2 m/S 723 mmHg 36%
02:00 +25°C° 0 mm 2 m/S 722 mmHg 38%
03:00 +24°C° 0 mm 1 m/S 722 mmHg 39%
04:00 +25°C° 0 mm 1 m/S 722 mmHg 39%
05:00 +25°C° 0 mm 1 m/S 723 mmHg 39%
06:00 +26°C° 0 mm 1 m/S 723 mmHg 39%
07:00 +28°C° 0 mm 2 m/S 723 mmHg 34%
08:00 +31°C° 0 mm 2 m/S 723 mmHg 29%
09:00 +34°C° 0 mm 3 m/S 723 mmHg 24%
10:00 +35°C° 0 mm 4 m/S 722 mmHg 22%
11:00 +37°C° 0 mm 5 m/S 722 mmHg 20%
12:00 +39°C° 0 mm 6 m/S 722 mmHg 18%
13:00 +39°C° 0 mm 5 m/S 722 mmHg 18%
14:00 +40°C° 0 mm 5 m/S 721 mmHg 18%
15:00 +40°C° 0 mm 5 m/S 721 mmHg 18%
16:00 +40°C° 0 mm 4 m/S 721 mmHg 19%
17:00 +38°C° 0 mm 4 m/S 721 mmHg 20%
18:00 +38°C° 0 mm 3 m/S 720 mmHg 21%
19:00 +35°C° 0 mm 2 m/S 721 mmHg 25%
20:00 +31°C° 0 mm 2 m/S 721 mmHg 29%
21:00 +29°C° 0 mm 1 m/S 721 mmHg 32%
22:00 +28°C° 0 mm 2 m/S 721 mmHg 33%
23:00 +27°C° 0 mm 2 m/S 721 mmHg 34%

8 Juli, Mittwoch

Zeit Temperatur Niederschläge Wind Luftdruck Luftfeuchtigkeit
00:00 +27°C° 0 mm 2 m/S 721 mmHg 35%
01:00 +26°C° 0 mm 2 m/S 721 mmHg 36%
02:00 +26°C° 0 mm 2 m/S 721 mmHg 37%
03:00 +25°C° 0 mm 1 m/S 721 mmHg 39%
04:00 +26°C° 0 mm 1 m/S 721 mmHg 38%
05:00 +26°C° 0 mm 1 m/S 721 mmHg 38%
06:00 +27°C° 0 mm 1 m/S 721 mmHg 38%
07:00 +29°C° 0 mm 1 m/S 720 mmHg 34%
08:00 +31°C° 0 mm 1 m/S 720 mmHg 29%
09:00 +34°C° 0 mm 2 m/S 720 mmHg 25%
10:00 +35°C° 0 mm 2 m/S 720 mmHg 23%
11:00 +37°C° 0 mm 3 m/S 720 mmHg 22%
12:00 +38°C° 0 mm 3 m/S 719 mmHg 20%
13:00 +39°C° 0 mm 3 m/S 719 mmHg 20%
14:00 +39°C° 0 mm 3 m/S 719 mmHg 19%
15:00 +40°C° 0 mm 3 m/S 718 mmHg 19%
16:00 +39°C° 0 mm 3 m/S 719 mmHg 20%
17:00 +39°C° 0 mm 3 m/S 719 mmHg 22%
18:00 +38°C° 0 mm 4 m/S 719 mmHg 23%
19:00 +35°C° 0.1 mm 4 m/S 719 mmHg 32%
20:00 +32°C° 0.1 mm 4 m/S 720 mmHg 40%
21:00 +28°C° 0.1 mm 4 m/S 720 mmHg 49%
22:00 +28°C° 0 mm 3 m/S 720 mmHg 51%
23:00 +27°C° 0 mm 3 m/S 720 mmHg 53%
Mehr zeigen